When you browse on this site, cookies collect data to enhance your experience and personalize the content and advertising you see.
Visit our Privacy Policy to learn more. By continuing to use the site, you agree to this use of cookies and data.
  • In United Kingdom
  • List of Countries
  • For 7 days
  • Water Temperature
  • Satellite Maps
  • Weather Map
  • Weather Widgets
  • user-avatar
    Login

    Hourly Weather Ghent

    Today, 23 May, Thursday

    Time Temperature Precipitation Wind Pressure Humidity
    00:00 +12°C° 0 mm 2 mps 763 mmHg 62%
    01:00 +12°C° 0 mm 2 mps 763 mmHg 66%
    02:00 +10°C° 0 mm 2 mps 763 mmHg 70%
    03:00 +10°C° 0 mm 2 mps 763 mmHg 74%
    04:00 +12°C° 0 mm 2 mps 763 mmHg 76%
    05:00 +13°C° 0 mm 2 mps 763 mmHg 78%
    06:00 +13°C° 0 mm 2 mps 763 mmHg 80%
    07:00 +15°C° 0 mm 2 mps 763 mmHg 71%
    08:00 +17°C° 0 mm 3 mps 763 mmHg 62%
    09:00 +19°C° 0 mm 3 mps 763 mmHg 53%
    10:00 +19°C° 0 mm 3 mps 763 mmHg 50%
    11:00 +20°C° 0 mm 3 mps 763 mmHg 48%
    12:00 +21°C° 0 mm 3 mps 762 mmHg 45%
    13:00 +21°C° 0 mm 2 mps 762 mmHg 47%
    14:00 +23°C° 0 mm 2 mps 762 mmHg 48%
    15:00 +23°C° 0 mm 2 mps 762 mmHg 50%
    16:00 +22°C° 0.1 mm 1 mps 762 mmHg 54%
    17:00 +22°C° 0.1 mm 1 mps 761 mmHg 59%
    18:00 +22°C° 0.1 mm 1 mps 761 mmHg 63%
    19:00 +20°C° 0 mm 1 mps 761 mmHg 66%
    20:00 +19°C° 0 mm 1 mps 761 mmHg 69%
    21:00 +16°C° 0 mm 1 mps 761 mmHg 72%
    22:00 +16°C° 0 mm 1 mps 761 mmHg 73%
    23:00 +15°C° 0 mm 1 mps 761 mmHg 74%

    Tomorrow, 24 May, Friday

    Time Temperature Precipitation Wind Pressure Humidity
    00:00 +15°C° 0 mm 1 mps 761 mmHg 75%
    01:00 +15°C° 0.1 mm 1 mps 761 mmHg 78%
    02:00 +14°C° 0.1 mm 1 mps 761 mmHg 81%
    03:00 +14°C° 0.1 mm 1 mps 761 mmHg 83%
    04:00 +14°C° 0 mm 1 mps 761 mmHg 81%
    05:00 +15°C° 0 mm 1 mps 761 mmHg 79%
    06:00 +16°C° 0 mm 1 mps 761 mmHg 78%
    07:00 +17°C° 0 mm 2 mps 761 mmHg 71%
    08:00 +18°C° 0 mm 2 mps 761 mmHg 65%
    09:00 +19°C° 0 mm 2 mps 761 mmHg 59%
    10:00 +20°C° 0 mm 3 mps 761 mmHg 58%
    11:00 +21°C° 0 mm 3 mps 761 mmHg 57%
    12:00 +21°C° 0 mm 4 mps 761 mmHg 56%
    13:00 +21°C° 0 mm 4 mps 761 mmHg 56%
    14:00 +20°C° 0 mm 5 mps 761 mmHg 56%
    15:00 +20°C° 0 mm 5 mps 761 mmHg 56%
    16:00 +19°C° 0 mm 4 mps 761 mmHg 57%
    17:00 +17°C° 0 mm 4 mps 761 mmHg 59%
    18:00 +16°C° 0 mm 3 mps 761 mmHg 60%
    19:00 +14°C° 0 mm 3 mps 761 mmHg 64%
    20:00 +13°C° 0 mm 2 mps 762 mmHg 67%
    21:00 +12°C° 0 mm 2 mps 762 mmHg 71%
    22:00 +10°C° 0 mm 2 mps 762 mmHg 74%
    23:00 +11°C° 0 mm 1 mps 762 mmHg 77%

    Day after tomorrow, 25 May, Saturday

    Time Temperature Precipitation Wind Pressure Humidity
    00:00 +10°C° 0 mm 1 mps 762 mmHg 80%
    01:00 +10°C° 0 mm 1 mps 762 mmHg 82%
    02:00 +10°C° 0 mm 1 mps 762 mmHg 84%
    03:00 +10°C° 0 mm 1 mps 762 mmHg 86%
    04:00 +11°C° 0 mm 1 mps 762 mmHg 82%
    05:00 +11°C° 0 mm 0 mps 763 mmHg 79%
    06:00 +12°C° 0 mm 0 mps 763 mmHg 76%
    07:00 +13°C° 0.1 mm 0 mps 763 mmHg 73%
    08:00 +14°C° 0.1 mm 0 mps 763 mmHg 70%
    09:00 +15°C° 0.1 mm 0 mps 763 mmHg 66%
    10:00 +18°C° 0.1 mm 1 mps 763 mmHg 66%
    11:00 +19°C° 0.1 mm 1 mps 762 mmHg 65%
    12:00 +20°C° 0.1 mm 1 mps 762 mmHg 64%
    13:00 +19°C° 0.5 mm 2 mps 762 mmHg 65%
    14:00 +19°C° 0.5 mm 3 mps 762 mmHg 65%
    15:00 +19°C° 0.5 mm 4 mps 762 mmHg 66%
    16:00 +18°C° 0 mm 4 mps 761 mmHg 68%
    17:00 +17°C° 0 mm 4 mps 761 mmHg 70%
    18:00 +17°C° 0 mm 3 mps 761 mmHg 72%
    19:00 +14°C° 0 mm 3 mps 762 mmHg 78%
    20:00 +14°C° 0 mm 2 mps 762 mmHg 83%
    21:00 +12°C° 0 mm 1 mps 762 mmHg 88%
    22:00 +12°C° 0 mm 2 mps 762 mmHg 88%
    23:00 +12°C° 0 mm 2 mps 762 mmHg 88%

    26 May, Sunday

    Time Temperature Precipitation Wind Pressure Humidity
    00:00 +10°C° 0 mm 2 mps 762 mmHg 88%
    01:00 +10°C° 0 mm 2 mps 761 mmHg 87%
    02:00 +10°C° 0 mm 2 mps 761 mmHg 87%
    03:00 +12°C° 0 mm 2 mps 761 mmHg 86%
    04:00 +12°C° 0 mm 3 mps 761 mmHg 85%
    05:00 +13°C° 0 mm 3 mps 760 mmHg 84%
    06:00 +14°C° 0 mm 3 mps 760 mmHg 83%
    07:00 +15°C° 0 mm 4 mps 760 mmHg 78%
    08:00 +17°C° 0 mm 4 mps 760 mmHg 73%
    09:00 +19°C° 0 mm 4 mps 760 mmHg 67%
    10:00 +20°C° 0 mm 4 mps 760 mmHg 66%
    11:00 +21°C° 0 mm 4 mps 760 mmHg 64%
    12:00 +22°C° 0 mm 4 mps 759 mmHg 62%
    13:00 +22°C° 0.2 mm 4 mps 759 mmHg 63%
    14:00 +22°C° 0.2 mm 4 mps 759 mmHg 65%
    15:00 +22°C° 0.2 mm 5 mps 758 mmHg 66%
    16:00 +21°C° 0.1 mm 5 mps 758 mmHg 69%
    17:00 +20°C° 0.1 mm 5 mps 758 mmHg 72%
    18:00 +19°C° 0.1 mm 5 mps 757 mmHg 74%
    19:00 +17°C° 0 mm 5 mps 757 mmHg 78%
    20:00 +15°C° 0 mm 5 mps 757 mmHg 82%
    21:00 +13°C° 0 mm 5 mps 757 mmHg 86%
    22:00 +13°C° 0 mm 5 mps 757 mmHg 87%
    23:00 +13°C° 0 mm 5 mps 757 mmHg 89%

    27 May, Monday

    Time Temperature Precipitation Wind Pressure Humidity
    00:00 +13°C° 0 mm 5 mps 756 mmHg 90%
    01:00 +14°C° 0.3 mm 5 mps 756 mmHg 91%
    02:00 +14°C° 0.3 mm 5 mps 755 mmHg 92%
    03:00 +14°C° 0.3 mm 5 mps 755 mmHg 94%
    04:00 +13°C° 0.6 mm 5 mps 755 mmHg 93%
    05:00 +13°C° 0.6 mm 4 mps 755 mmHg 92%
    06:00 +13°C° 0.6 mm 4 mps 755 mmHg 92%
    07:00 +13°C° 0.1 mm 4 mps 755 mmHg 85%
    08:00 +14°C° 0.1 mm 4 mps 755 mmHg 79%
    09:00 +14°C° 0.1 mm 4 mps 755 mmHg 72%
    10:00 +15°C° 0 mm 4 mps 755 mmHg 67%
    11:00 +16°C° 0 mm 5 mps 755 mmHg 61%
    12:00 +16°C° 0 mm 5 mps 755 mmHg 56%
    13:00 +17°C° 0 mm 5 mps 754 mmHg 55%
    14:00 +18°C° 0 mm 4 mps 754 mmHg 54%
    15:00 +18°C° 0 mm 4 mps 754 mmHg 53%
    16:00 +17°C° 0.1 mm 4 mps 753 mmHg 59%
    17:00 +15°C° 0.1 mm 4 mps 753 mmHg 65%
    18:00 +14°C° 0.1 mm 4 mps 753 mmHg 71%
    19:00 +13°C° 0.1 mm 4 mps 753 mmHg 75%
    20:00 +12°C° 0.1 mm 4 mps 753 mmHg 79%
    21:00 +11°C° 0.1 mm 3 mps 753 mmHg 83%
    22:00 +11°C° 0.2 mm 3 mps 752 mmHg 86%
    23:00 +11°C° 0.2 mm 3 mps 752 mmHg 88%

    28 May, Tuesday

    Time Temperature Precipitation Wind Pressure Humidity
    00:00 +10°C° 0.2 mm 3 mps 752 mmHg 91%
    01:00 +10°C° 0.1 mm 3 mps 751 mmHg 92%
    02:00 +9°C° 0.1 mm 3 mps 751 mmHg 93%
    03:00 +9°C° 0.1 mm 3 mps 751 mmHg 94%
    04:00 +8°C° 0 mm 4 mps 751 mmHg 92%
    05:00 +10°C° 0 mm 4 mps 751 mmHg 89%
    06:00 +10°C° 0 mm 4 mps 751 mmHg 87%
    07:00 +12°C° 0.2 mm 4 mps 751 mmHg 82%
    08:00 +13°C° 0.2 mm 4 mps 751 mmHg 77%
    09:00 +14°C° 0.2 mm 4 mps 751 mmHg 72%
    10:00 +14°C° 0.6 mm 5 mps 751 mmHg 71%
    11:00 +14°C° 0.6 mm 5 mps 751 mmHg 69%
    12:00 +15°C° 0.6 mm 6 mps 752 mmHg 68%
    13:00 +15°C° 0.2 mm 6 mps 752 mmHg 67%
    14:00 +15°C° 0.2 mm 6 mps 752 mmHg 66%
    15:00 +15°C° 0.2 mm 6 mps 752 mmHg 65%
    16:00 +14°C° 0.4 mm 6 mps 753 mmHg 70%
    17:00 +13°C° 0.4 mm 6 mps 754 mmHg 75%
    18:00 +11°C° 0.4 mm 6 mps 754 mmHg 80%
    19:00 +10°C° 0.6 mm 7 mps 755 mmHg 83%
    20:00 +9°C° 0.6 mm 7 mps 756 mmHg 85%
    21:00 +7°C° 0.6 mm 8 mps 757 mmHg 87%
    22:00 +8°C° 0.4 mm 7 mps 757 mmHg 85%
    23:00 +8°C° 0.4 mm 6 mps 758 mmHg 82%
    Show more